Regional Weather Roundup
Issued by NWS

Home | Current Version | Previous Version | Graphics & Text | Print | Product List | Glossary On
Versions: 1 2 3 4 5 6 7 8 9 10 11 12 13 14 15 16 17 18 19 20 21 22 23 24 25 26 27 28 29 30 31 32 33 34 35 36 37 38 39 40 41 42 43 44 45 46 47 48 49 50
000
ASUS43 KIND 240259
RWRIN

WEATHER ROUNDUP FOR INDIANA
NATIONAL WEATHER SERVICE INDIANAPOLIS IN
1100 PM EDT WED JUL 23 2014

NOTE: "FAIR" INDICATES FEW OR NO CLOUDS BELOW 12,000 FEET WITH NO
SIGNIFICANT WEATHER AND/OR OBSTRUCTIONS TO VISIBILITY.

* - STATION DOES NOT REPORT WEATHER SUCH AS PRECIPITATION OR FOG.

+ - STATION NOT QUALITY CONTROLLED BY THE NATIONAL WEATHER SERVICE.
    USE DATA WITH CAUTION...ESPECIALLY DEWPOINT AND RELATIVE
    HUMIDITY OBSERVATIONS.

INZ001>003-010>013-019-020-240400-
NORTHWEST INDIANA

CITY           SKY/WX    TMP DP  RH WIND       PRES   REMARKS
GARY /AIRPORT/ CLEAR     64  53  67 N9        30.13S
KNOX *+        CLEAR     56  52  87 N3        30.10S
MONTICELLO +   CLEAR     59  52  78 N6        30.09S
RENSSELAER +   CLEAR     57  54  88 N5        30.11F
VALPARAISO     CLEAR     57  52  83 N3        30.11F

$$

LMZ046-743>745-240400-
SOUTHERN LAKE MICHIGAN

STATION/POSITION TIME  TEMP WIND        PRES
                       AIR  DIR/SP/G
                 (UTC) (F)  (DEG/KT/KT) (MB)
MICHIGAN CITY    0200   63  360/ 18/ 21   N/A

$$

INZ004-005-014>016-021>024-240400-
NORTH CENTRAL INDIANA

CITY           SKY/WX    TMP DP  RH WIND       PRES   REMARKS
GOSHEN         PTCLDY    64  56  75 N9        30.09S
SOUTH BEND     CLEAR     59  54  83 N7        30.10F
WARSAW +       MOCLDY    61  55  82 N5        30.09S

$$

INZ006>009-017-018-025>027-240400-
NORTHEAST INDIANA

CITY           SKY/WX    TMP DP  RH WIND       PRES   REMARKS
ANGOLA *+      PTCLDY    66  55  68 N3        30.09R
FORT WAYNE     MOCLDY    65  57  75 N5        30.07S

$$

INZ028-029-035-036-043>045-051>053-240400-
WEST CENTRAL INDIANA

CITY           SKY/WX    TMP DP  RH WIND       PRES   REMARKS
GREENCASTLE +  CLEAR     63  55  77 N8        30.09R
LAFAYETTE      CLEAR     60  49  66 N8        30.10R
TERRE HAUTE    CLEAR     63  52  67 N8        30.09R

$$

INZ030>032-037>040-046>048-054>057-064-065-240400-
CENTRAL INDIANA

CITY           SKY/WX    TMP DP  RH WIND       PRES   REMARKS
INDIANAPOLIS   PTCLDY    65  58  78 N17       30.05S
-EAGLE CREEK   CLEAR     64  57  78 N12       30.06S
KOKOMO *+      CLEAR     63  55  77 N8        30.08S
MT COMFORT *+  MOCLDY    66  66 100 N9        30.06S
SHELBYVILLE    CLOUDY    69  63  81 N7        30.04S
ZIONSVILLE +   CLEAR     63  56  78 N12       30.08S

$$

INZ033-034-041-042-049-050-058-059-240400-
EAST CENTRAL INDIANA

CITY           SKY/WX    TMP DP  RH WIND       PRES   REMARKS
MUNCIE         MOCLDY    68  61  78 N7        30.06R

$$

INZ060-061-067>069-081>083-085>088-240400-
SOUTHWEST INDIANA

CITY           SKY/WX    TMP DP  RH WIND       PRES   REMARKS
EVANSVILLE     CLOUDY    74  67  78 N8        30.04R
HUNTINGBURG *+ CLOUDY    73  66  78 NE8       30.03S

$$

INZ062-063-066-070>080-084-089>092-240400-
SOUTH CENTRAL AND SOUTHEAST INDIANA

CITY           SKY/WX    TMP DP  RH WIND       PRES   REMARKS
BLOOMINGTON    CLEAR     66  58  75 N8        30.06R
SEYMOUR +      CLOUDY    66  55  68 N8        30.03

$$



USA.gov is the U.S. government's official web portal to all federal, state and local government web resources and services.